CW5646 Weather Reports


time (UTC)temp
C
wind
direction
speed
KPH
gust
KPH
rain 1hr
cm
rain 24hr
cm
rain mn
cm
humidity
%
barometer
mb
20260505123724 11 180 0.0 3.2 0.00 0.00 0.00 91 1014.9
20260505122221 11 175 1.6 4.8 0.00 0.00 0.00 91 1014.9
20260505120722 11 98 0.0 0.0 0.00 0.00 0.00 91 1014.9
20260505115221 11 98 0.0 0.0 0.00 0.00 0.00 91 1014.9
20260505113725 11 98 0.0 0.0 0.00 0.00 0.00 91 1014.9
20260505112215 11 98 0.0 0.0 0.00 0.00 0.00 91 1014.8
20260505110729 11 98 0.0 3.2 0.00 0.00 0.00 92 1014.6
20260505102217 10 157 0.0 3.2 0.00 0.00 0.00 92 1014.3
20260505100718 10 157 0.0 4.8 0.00 0.00 0.00 92 1014.3
20260505095224 10 166 1.6 6.4 0.00 0.00 0.00 92 1014.3
20260505093724 10 228 1.6 6.4 0.00 0.00 0.00 91 1014.1
20260505092304 10 196 0.0 8.0 0.00 0.00 0.00 91 1014.0
20260505090725 10 189 3.2 8.0 0.00 0.00 0.00 90 1013.9
20260505085217 11 193 4.8 11.3 0.00 0.00 0.00 90 1013.8
20260505083740 11 196 4.8 9.7 0.00 0.00 0.00 89 1013.9
20260505082231 11 185 6.4 11.3 0.00 0.00 0.00 88 1013.8
20260505080727 11 185 4.8 11.3 0.00 0.00 0.00 88 1013.7
20260505075233 11 204 3.2 8.0 0.00 0.00 0.00 88 1013.4
20260505073733 12 185 1.6 9.7 0.00 0.00 0.00 87 1013.3
20260505072231 12 206 3.2 9.7 0.00 0.00 0.00 86 1013.1
20260505070729 12 227 8.0 11.3 0.00 0.00 0.00 86 1013.1
20260505065217 12 193 3.2 11.3 0.00 0.00 0.00 86 1012.8
20260505063717 12 197 4.8 9.7 0.00 0.00 0.00 85 1012.7
20260505062215 13 238 4.8 14.5 0.00 0.00 0.00 85 1012.5
20260505060734 13 189 6.4 11.3 0.00 0.00 0.00 84 1012.4
20260505055239 13 198 1.6 6.4 0.00 0.00 0.00 83 1012.5
20260505053743 15 180 1.6 4.8 0.00 0.00 0.00 83 1012.3
20260505052227 15 197 1.6 8.0 0.00 0.00 0.00 82 1012.2
20260505050727 16 166 1.6 9.7 0.00 0.00 0.00 80 1012.2
20260505040720 17 254 1.6 8.0 0.00 0.00 0.00 79 1011.2
20260505035216 17 203 3.2 4.8 0.00 0.00 0.00 78 1011.1
20260505033723 17 204 3.2 9.7 0.00 0.00 0.00 77 1010.9
20260505032239 18 156 0.0 4.8 0.00 0.00 0.00 79 1010.7
20260505030715 18 166 0.0 6.4 0.00 0.00 0.00 78 1010.6
20260505025213 18 193 1.6 3.2 0.00 0.00 0.00 79 1010.5
20260505023736 19 193 1.6 4.8 0.00 0.00 0.00 77 1010.4
20260505022212 20 189 0.0 14.5 0.00 0.00 0.00 75 1010.4
20260505020741 20 216 1.6 8.0 0.00 0.00 0.00 76 1010.3
20260505015219 20 232 0.0 9.7 0.00 0.00 0.00 75 1010.4
20260505013719 20 93 1.6 9.7 0.00 0.00 0.00 73 1010.5
20260505012220 20 165 1.6 9.7 0.00 0.00 0.00 73 1010.6
20260505010720 20 146 1.6 8.0 0.00 0.00 0.00 73 1010.6